| time (UTC) | temp F | wind direction | speed MPH | gust MPH | rain 1hr in | rain 24hr in | rain mn in | humidity % | barometer mb |
| 20260503051056 | 62 | 0 | 0.0 | 3.0 | 0.00 | 0.00 | 0.00 | 79 | 1011.9 |
| 20260503050558 | 62 | 302 | 1.0 | 3.0 | 0.00 | 0.00 | 0.00 | 80 | 1011.9 |
| 20260503045559 | 61 | 0 | 0.0 | 2.0 | 0.00 | 0.00 | 0.00 | 80 | 1012.0 |
| 20260503045057 | 61 | 0 | 0.0 | 3.0 | 0.00 | 0.00 | 0.00 | 81 | 1011.9 |
| 20260503044556 | 61 | 5 | 0.0 | 3.0 | 0.00 | 0.00 | 0.00 | 81 | 1012.0 |
| 20260503044055 | 61 | 0 | 1.0 | 3.0 | 0.00 | 0.00 | 0.00 | 80 | 1012.1 |
| 20260503043557 | 62 | 13 | 0.0 | 2.0 | 0.00 | 0.00 | 0.00 | 80 | 1012.2 |
| 20260503043058 | 62 | 0 | 0.0 | 3.0 | 0.00 | 0.00 | 0.00 | 80 | 1012.2 |
| 20260503042557 | 62 | 13 | 1.0 | 3.0 | 0.00 | 0.00 | 0.00 | 79 | 1012.2 |
| 20260503042057 | 62 | 13 | 1.0 | 3.0 | 0.00 | 0.00 | 0.00 | 78 | 1012.0 |
| 20260503041559 | 62 | 13 | 1.0 | 2.0 | 0.00 | 0.00 | 0.00 | 78 | 1012.0 |
| 20260503041058 | 62 | 0 | 0.0 | 2.0 | 0.00 | 0.00 | 0.00 | 78 | 1012.0 |
| 20260503040556 | 62 | 0 | 0.0 | 2.0 | 0.00 | 0.00 | 0.00 | 78 | 1011.9 |
| 20260503040057 | 63 | 13 | 0.0 | 3.0 | 0.00 | 0.00 | 0.00 | 77 | 1012.0 |
| 20260503035600 | 63 | 13 | 1.0 | 3.0 | 0.00 | 0.00 | 0.00 | 77 | 1012.0 |
| 20260503035101 | 63 | 0 | 1.0 | 3.0 | 0.00 | 0.00 | 0.00 | 77 | 1012.0 |
| 20260503034601 | 63 | 112 | 0.0 | 2.0 | 0.00 | 0.00 | 0.00 | 77 | 1012.0 |
| 20260503034056 | 63 | 112 | 0.0 | 2.0 | 0.00 | 0.00 | 0.00 | 77 | 1012.1 |
| 20260503033600 | 63 | 144 | 1.0 | 2.0 | 0.00 | 0.00 | 0.00 | 76 | 1012.1 |
| 20260503033101 | 63 | 0 | 0.0 | 2.0 | 0.00 | 0.00 | 0.00 | 76 | 1012.1 |
| 20260503032554 | 63 | 144 | 0.0 | 2.0 | 0.00 | 0.00 | 0.00 | 76 | 1012.0 |
| 20260503032057 | 63 | 0 | 0.0 | 3.0 | 0.00 | 0.00 | 0.00 | 76 | 1012.0 |
| 20260503031602 | 63 | 0 | 1.0 | 3.0 | 0.00 | 0.00 | 0.00 | 76 | 1011.9 |
| 20260503031056 | 64 | 63 | 1.0 | 3.0 | 0.00 | 0.00 | 0.00 | 76 | 1011.7 |
| 20260503030556 | 64 | 144 | 1.0 | 5.0 | 0.00 | 0.00 | 0.00 | 75 | 1011.7 |
| 20260503030057 | 64 | 0 | 0.0 | 5.0 | 0.00 | 0.00 | 0.00 | 75 | 1011.7 |
| 20260503025558 | 64 | 17 | 2.0 | 5.0 | 0.00 | 0.00 | 0.00 | 73 | 1011.6 |
| 20260503025102 | 64 | 317 | 0.0 | 3.0 | 0.00 | 0.00 | 0.00 | 74 | 1011.8 |
| 20260503024623 | 64 | 317 | 0.0 | 8.0 | 0.00 | 0.00 | 0.00 | 73 | 1011.7 |
| 20260503024057 | 64 | 299 | 1.0 | 12.0 | 0.00 | 0.00 | 0.00 | 72 | 1011.9 |
| 20260503023557 | 64 | 267 | 3.0 | 12.0 | 0.00 | 0.00 | 0.00 | 72 | 1011.8 |
| 20260503023059 | 64 | 169 | 1.0 | 7.0 | 0.00 | 0.00 | 0.00 | 73 | 1012.0 |
| 20260503022557 | 64 | 221 | 2.0 | 11.0 | 0.00 | 0.00 | 0.00 | 74 | 1012.0 |
| 20260503022058 | 64 | 263 | 2.0 | 15.0 | 0.00 | 0.00 | 0.00 | 73 | 1012.1 |
| 20260503021605 | 64 | 150 | 2.0 | 15.0 | 0.00 | 0.00 | 0.00 | 73 | 1012.1 |
| 20260503021057 | 65 | 201 | 3.0 | 20.0 | 0.00 | 0.00 | 0.00 | 72 | 1012.1 |
| 20260503020557 | 65 | 228 | 2.0 | 20.0 | 0.00 | 0.00 | 0.00 | 72 | 1012.2 |
| 20260503020104 | 65 | 160 | 8.0 | 19.0 | 0.00 | 0.00 | 0.00 | 71 | 1012.1 |
| 20260503015557 | 67 | 182 | 5.0 | 16.0 | 0.00 | 0.00 | 0.00 | 70 | 1012.2 |
| 20260503015100 | 67 | 177 | 5.0 | 12.0 | 0.00 | 0.00 | 0.00 | 69 | 1011.8 |
| 20260503014627 | 69 | 169 | 1.0 | 5.0 | 0.00 | 0.00 | 0.00 | 66 | 1011.4 |
| 20260503014058 | 69 | 182 | 1.0 | 5.0 | 0.00 | 0.00 | 0.00 | 65 | 1011.4 |
| 20260503013554 | 69 | 216 | 2.0 | 5.0 | 0.00 | 0.00 | 0.00 | 64 | 1011.3 |
| 20260503013058 | 70 | 245 | 0.0 | 5.0 | 0.00 | 0.00 | 0.00 | 63 | 1011.2 |
| 20260503012557 | 70 | 224 | 1.0 | 5.0 | 0.00 | 0.00 | 0.00 | 62 | 1011.2 |
| 20260503012056 | 70 | 189 | 1.0 | 5.0 | 0.00 | 0.00 | 0.00 | 61 | 1011.2 |
| 20260503011625 | 70 | 213 | 2.0 | 4.0 | 0.00 | 0.00 | 0.00 | 62 | 1011.2 |
| 20260503011100 | 70 | 234 | 1.0 | 4.0 | 0.00 | 0.00 | 0.00 | 61 | 1011.1 |
| 20260503010557 | 70 | 216 | 2.0 | 4.0 | 0.00 | 0.00 | 0.00 | 61 | 1011.2 |
| 20260503010057 | 71 | 200 | 1.0 | 4.0 | 0.00 | 0.00 | 0.00 | 59 | 1011.1 |
| 20260503005559 | 72 | 276 | 0.0 | 4.0 | 0.00 | 0.00 | 0.00 | 57 | 1011.1 |
| 20260503005058 | 72 | 300 | 1.0 | 7.0 | 0.00 | 0.00 | 0.00 | 58 | 1011.1 |
| 20260503004556 | 72 | 0 | 1.0 | 7.0 | 0.00 | 0.00 | 0.00 | 59 | 1011.1 |
| 20260503004058 | 72 | 352 | 0.0 | 4.0 | 0.00 | 0.00 | 0.00 | 57 | 1011.1 |
| 20260503003553 | 72 | 352 | 0.0 | 4.0 | 0.00 | 0.00 | 0.00 | 57 | 1011.2 |
| 20260503003101 | 72 | 60 | 1.0 | 4.0 | 0.00 | 0.00 | 0.00 | 56 | 1011.1 |
| 20260503002556 | 72 | 0 | 1.0 | 4.0 | 0.00 | 0.00 | 0.00 | 57 | 1011.1 |
| 20260503002053 | 72 | 0 | 1.0 | 7.0 | 0.00 | 0.00 | 0.00 | 56 | 1011.0 |
| 20260503001620 | 72 | 281 | 1.0 | 7.0 | 0.00 | 0.00 | 0.00 | 58 | 1011.0 |
| 20260503001057 | 72 | 282 | 2.0 | 6.0 | 0.00 | 0.00 | 0.00 | 57 | 1011.0 |
| 20260503000557 | 71 | 77 | 1.0 | 5.0 | 0.00 | 0.00 | 0.00 | 57 | 1011.1 |
| 20260503000121 | 71 | 360 | 2.0 | 5.0 | 0.00 | 0.00 | 0.00 | 58 | 1011.2 |
| 20260502235557 | 71 | 360 | 1.0 | 5.0 | 0.00 | 0.00 | 0.00 | 57 | 1011.2 |
| 20260502235054 | 71 | 298 | 1.0 | 6.0 | 0.00 | 0.00 | 0.00 | 58 | 1011.3 |
| 20260502234618 | 72 | 313 | 2.0 | 6.0 | 0.00 | 0.00 | 0.00 | 58 | 1011.3 |
| 20260502234057 | 71 | 67 | 1.0 | 4.0 | 0.00 | 0.00 | 0.00 | 60 | 1011.4 |
| 20260502233556 | 71 | 255 | 1.0 | 5.0 | 0.00 | 0.00 | 0.00 | 56 | 1011.4 |
| 20260502233058 | 71 | 352 | 1.0 | 5.0 | 0.00 | 0.00 | 0.00 | 58 | 1011.5 |
| 20260502232557 | 71 | 55 | 2.0 | 5.0 | 0.00 | 0.00 | 0.00 | 59 | 1011.5 |
| 20260502232056 | 71 | 325 | 1.0 | 5.0 | 0.00 | 0.00 | 0.00 | 58 | 1011.6 |
| 20260502231557 | 71 | 82 | 1.0 | 6.0 | 0.00 | 0.00 | 0.00 | 57 | 1011.7 |
| 20260502231100 | 71 | 248 | 0.0 | 6.0 | 0.00 | 0.00 | 0.00 | 58 | 1011.7 |
| 20260502230557 | 70 | 13 | 2.0 | 6.0 | 0.00 | 0.00 | 0.00 | 60 | 1011.7 |
| 20260502230100 | 70 | 76 | 2.0 | 6.0 | 0.00 | 0.00 | 0.00 | 59 | 1011.7 |
| 20260502225553 | 70 | 340 | 1.0 | 4.0 | 0.00 | 0.00 | 0.00 | 60 | 1011.7 |
| 20260502225057 | 69 | 38 | 0.0 | 4.0 | 0.00 | 0.00 | 0.00 | 62 | 1011.8 |
| 20260502224555 | 68 | 297 | 0.0 | 4.0 | 0.00 | 0.00 | 0.00 | 62 | 1011.8 |
| 20260502224057 | 67 | 302 | 2.0 | 4.0 | 0.00 | 0.00 | 0.00 | 63 | 1011.9 |
| 20260502223557 | 68 | 314 | 1.0 | 6.0 | 0.00 | 0.00 | 0.00 | 62 | 1012.0 |
| 20260502223103 | 69 | 318 | 1.0 | 6.0 | 0.00 | 0.00 | 0.00 | 62 | 1012.2 |
| 20260502222557 | 68 | 9 | 2.0 | 6.0 | 0.00 | 0.00 | 0.00 | 62 | 1012.3 |
| 20260502222058 | 68 | 194 | 2.0 | 6.0 | 0.00 | 0.00 | 0.00 | 62 | 1012.3 |
| 20260502221555 | 67 | 292 | 2.0 | 7.0 | 0.00 | 0.00 | 0.00 | 63 | 1012.4 |
| 20260502221054 | 67 | 0 | 2.0 | 7.0 | 0.00 | 0.00 | 0.00 | 63 | 1012.5 |
| 20260502220557 | 68 | 304 | 2.0 | 5.0 | 0.00 | 0.00 | 0.00 | 63 | 1012.5 |
| 20260502215559 | 69 | 0 | 1.0 | 8.0 | 0.00 | 0.00 | 0.00 | 62 | 1012.7 |
| 20260502215058 | 67 | 279 | 3.0 | 8.0 | 0.00 | 0.00 | 0.00 | 61 | 1012.8 |
| 20260502214556 | 67 | 82 | 3.0 | 7.0 | 0.00 | 0.00 | 0.00 | 63 | 1012.8 |
| 20260502214057 | 66 | 271 | 2.0 | 7.0 | 0.00 | 0.00 | 0.00 | 64 | 1012.9 |
| 20260502213554 | 66 | 18 | 3.0 | 7.0 | 0.00 | 0.00 | 0.00 | 63 | 1013.0 |
| 20260502213100 | 66 | 308 | 2.0 | 6.0 | 0.00 | 0.00 | 0.00 | 66 | 1013.1 |
| 20260502212601 | 65 | 311 | 2.0 | 8.0 | 0.00 | 0.00 | 0.00 | 66 | 1013.2 |
| 20260502212057 | 64 | 0 | 2.0 | 8.0 | 0.00 | 0.00 | 0.00 | 66 | 1013.3 |
| 20260502211558 | 65 | 44 | 2.0 | 8.0 | 0.00 | 0.00 | 0.00 | 65 | 1013.3 |
| 20260502211053 | 64 | 224 | 1.0 | 6.0 | 0.00 | 0.00 | 0.00 | 67 | 1013.3 |
| 20260502210554 | 64 | 80 | 2.0 | 8.0 | 0.00 | 0.00 | 0.00 | 67 | 1013.3 |
| 20260502210056 | 63 | 78 | 3.0 | 8.0 | 0.00 | 0.00 | 0.00 | 68 | 1013.3 |
| 20260502205558 | 65 | 43 | 2.0 | 6.0 | 0.00 | 0.00 | 0.00 | 66 | 1013.4 |
| 20260502205055 | 65 | 40 | 3.0 | 7.0 | 0.00 | 0.00 | 0.00 | 66 | 1013.6 |
| 20260502204603 | 65 | 90 | 2.0 | 9.0 | 0.00 | 0.00 | 0.00 | 68 | 1013.7 |
| 20260502204055 | 63 | 82 | 3.0 | 9.0 | 0.00 | 0.00 | 0.00 | 67 | 1013.9 |
| 20260502203554 | 64 | 13 | 3.0 | 5.0 | 0.00 | 0.00 | 0.00 | 67 | 1014.1 |
| 20260502203118 | 63 | 36 | 1.0 | 5.0 | 0.00 | 0.00 | 0.00 | 69 | 1014.0 |
| 20260502202554 | 63 | 93 | 1.0 | 4.0 | 0.00 | 0.00 | 0.00 | 71 | 1014.0 |
| 20260502202058 | 61 | 155 | 1.0 | 8.0 | 0.00 | 0.00 | 0.00 | 70 | 1014.1 |
| 20260502201616 | 62 | 278 | 3.0 | 8.0 | 0.00 | 0.00 | 0.00 | 71 | 1014.2 |
| 20260502201056 | 60 | 5 | 1.0 | 5.0 | 0.00 | 0.00 | 0.00 | 71 | 1014.2 |
| 20260502200557 | 60 | 0 | 1.0 | 5.0 | 0.00 | 0.00 | 0.00 | 73 | 1014.3 |
| 20260502200101 | 61 | 305 | 2.0 | 5.0 | 0.00 | 0.00 | 0.00 | 71 | 1014.2 |
| 20260502195559 | 59 | 273 | 1.0 | 6.0 | 0.00 | 0.00 | 0.00 | 74 | 1014.3 |
| 20260502195054 | 60 | 219 | 1.0 | 6.0 | 0.00 | 0.00 | 0.00 | 73 | 1014.4 |
| 20260502194601 | 60 | 257 | 1.0 | 5.0 | 0.00 | 0.00 | 0.00 | 72 | 1014.4 |
| 20260502194054 | 61 | 11 | 2.0 | 5.0 | 0.00 | 0.00 | 0.00 | 73 | 1014.4 |
| 20260502193557 | 61 | 79 | 0.0 | 10.0 | 0.00 | 0.00 | 0.00 | 73 | 1014.5 |
| 20260502193113 | 60 | 0 | 1.0 | 10.0 | 0.00 | 0.00 | 0.00 | 73 | 1014.4 |
| 20260502192557 | 60 | 19 | 2.0 | 5.0 | 0.00 | 0.00 | 0.00 | 72 | 1014.5 |
| 20260502192057 | 60 | 334 | 1.0 | 7.0 | 0.00 | 0.00 | 0.00 | 74 | 1014.4 |
| 20260502191556 | 58 | 352 | 1.0 | 9.0 | 0.00 | 0.00 | 0.00 | 76 | 1014.6 |
| 20260502191054 | 57 | 271 | 3.0 | 9.0 | 0.00 | 0.00 | 0.00 | 77 | 1014.9 |
| 20260502190554 | 58 | 302 | 1.0 | 5.0 | 0.00 | 0.00 | 0.00 | 77 | 1014.9 |
| 20260502190057 | 57 | 0 | 0.0 | 6.0 | 0.00 | 0.00 | 0.00 | 78 | 1015.0 |
| 20260502185557 | 57 | 46 | 1.0 | 6.0 | 0.00 | 0.00 | 0.00 | 78 | 1015.1 |
| 20260502185054 | 56 | 30 | 2.0 | 6.0 | 0.00 | 0.00 | 0.00 | 77 | 1015.1 |
| 20260502184603 | 56 | 317 | 2.0 | 6.0 | 0.00 | 0.00 | 0.00 | 78 | 1015.2 |
| 20260502184054 | 57 | 283 | 1.0 | 4.0 | 0.00 | 0.00 | 0.00 | 79 | 1015.0 |
| 20260502183554 | 56 | 323 | 1.0 | 4.0 | 0.00 | 0.00 | 0.00 | 78 | 1014.9 |
| 20260502183107 | 57 | 0 | 1.0 | 4.0 | 0.00 | 0.00 | 0.00 | 78 | 1014.8 |
| 20260502182553 | 56 | 0 | 0.0 | 5.0 | 0.00 | 0.00 | 0.00 | 81 | 1014.8 |
| 20260502182056 | 55 | 303 | 1.0 | 5.0 | 0.00 | 0.00 | 0.00 | 81 | 1014.9 |
| 20260502181611 | 56 | 5 | 1.0 | 5.0 | 0.00 | 0.00 | 0.00 | 80 | 1015.1 |
| 20260502181053 | 55 | 24 | 1.0 | 6.0 | 0.00 | 0.00 | 0.00 | 81 | 1015.0 |
| 20260502180554 | 54 | 5 | 2.0 | 7.0 | 0.00 | 0.00 | 0.00 | 81 | 1015.1 |
| 20260502180109 | 55 | 0 | 1.0 | 7.0 | 0.00 | 0.00 | 0.00 | 81 | 1015.3 |
| 20260502164057 | 53 | 20 | 2.0 | 5.0 | 0.00 | 0.00 | 0.00 | 84 | 1015.4 |
| 20260502163554 | 53 | 0 | 2.0 | 5.0 | 0.00 | 0.00 | 0.00 | 84 | 1015.4 |
| 20260502163059 | 53 | 34 | 1.0 | 4.0 | 0.00 | 0.00 | 0.00 | 84 | 1015.4 |
| 20260502162556 | 53 | 35 | 2.0 | 4.0 | 0.00 | 0.00 | 0.00 | 84 | 1015.4 |
| 20260502162059 | 53 | 0 | 0.0 | 7.0 | 0.00 | 0.00 | 0.00 | 86 | 1015.3 |
| 20260502161556 | 52 | 0 | 2.0 | 7.0 | 0.00 | 0.00 | 0.00 | 85 | 1015.4 |
| 20260502161054 | 52 | 66 | 3.0 | 5.0 | 0.00 | 0.00 | 0.00 | 85 | 1015.5 |
| 20260502160557 | 52 | 18 | 0.0 | 4.0 | 0.00 | 0.00 | 0.00 | 86 | 1015.6 |
| 20260502152058 | 52 | 37 | 1.0 | 8.0 | 0.00 | 0.00 | 0.00 | 86 | 1015.7 |
| 20260502151612 | 52 | 45 | 3.0 | 6.0 | 0.00 | 0.00 | 0.00 | 85 | 1015.5 |
| 20260502151054 | 52 | 47 | 1.0 | 5.0 | 0.00 | 0.00 | 0.00 | 85 | 1015.6 |
| 20260502150554 | 52 | 360 | 1.0 | 5.0 | 0.00 | 0.00 | 0.00 | 85 | 1015.7 |
| 20260502130557 | 51 | 0 | 1.0 | 5.0 | 0.00 | 0.00 | 0.00 | 86 | 1015.5 |
| 20260502123553 | 50 | 0 | 0.0 | 5.0 | 0.00 | 0.00 | 0.00 | 87 | 1015.4 |
| 20260502123053 | 50 | 0 | 1.0 | 5.0 | 0.00 | 0.00 | 0.00 | 87 | 1015.4 |
| 20260502122554 | 50 | 5 | 1.0 | 4.0 | 0.00 | 0.00 | 0.00 | 87 | 1015.5 |
| 20260502122054 | 50 | 0 | 1.0 | 4.0 | 0.00 | 0.00 | 0.00 | 87 | 1015.6 |
| 20260502121600 | 50 | 34 | 0.0 | 8.0 | 0.00 | 0.00 | 0.00 | 88 | 1015.5 |
| 20260502121056 | 50 | 0 | 1.0 | 8.0 | 0.00 | 0.00 | 0.00 | 88 | 1015.5 |
| 20260502120556 | 50 | 355 | 1.0 | 3.0 | 0.00 | 0.00 | 0.00 | 88 | 1015.4 |
| 20260502115554 | 50 | 263 | 0.0 | 2.0 | 0.00 | 0.00 | 0.00 | 89 | 1015.5 |
| 20260502115054 | 50 | 0 | 0.0 | 2.0 | 0.00 | 0.00 | 0.00 | 89 | 1015.4 |
| 20260502114558 | 50 | 0 | 0.0 | 2.0 | 0.00 | 0.00 | 0.00 | 88 | 1015.5 |
| 20260502114055 | 50 | 0 | 0.0 | 2.0 | 0.00 | 0.00 | 0.00 | 88 | 1015.6 |
| 20260502113554 | 50 | 0 | 0.0 | 4.0 | 0.00 | 0.00 | 0.00 | 88 | 1015.4 |
| 20260502113103 | 50 | 297 | 0.0 | 4.0 | 0.00 | 0.00 | 0.00 | 88 | 1015.6 |
| 20260502112554 | 50 | 0 | 0.0 | 3.0 | 0.00 | 0.00 | 0.00 | 87 | 1015.5 |
| 20260502112054 | 50 | 0 | 1.0 | 3.0 | 0.00 | 0.00 | 0.00 | 87 | 1015.6 |
| 20260502111602 | 50 | 0 | 0.0 | 6.0 | 0.00 | 0.00 | 0.00 | 87 | 1015.6 |
| 20260502111054 | 51 | 296 | 2.0 | 7.0 | 0.00 | 0.00 | 0.00 | 87 | 1015.7 |
| 20260502110554 | 51 | 352 | 2.0 | 7.0 | 0.00 | 0.00 | 0.00 | 87 | 1015.4 |
| 20260502110059 | 51 | 36 | 2.0 | 7.0 | 0.00 | 0.00 | 0.00 | 87 | 1015.2 |
| 20260502105555 | 51 | 347 | 2.0 | 7.0 | 0.00 | 0.00 | 0.00 | 87 | 1015.3 |
| 20260502105055 | 51 | 5 | 2.0 | 6.0 | 0.00 | 0.00 | 0.00 | 87 | 1015.4 |
| 20260502104611 | 51 | 13 | 2.0 | 6.0 | 0.00 | 0.00 | 0.00 | 87 | 1015.4 |
| 20260502104054 | 51 | 18 | 2.0 | 5.0 | 0.00 | 0.00 | 0.00 | 87 | 1015.5 |
| 20260502103554 | 51 | 5 | 2.0 | 8.0 | 0.00 | 0.00 | 0.00 | 87 | 1015.5 |
| 20260502103058 | 51 | 29 | 3.0 | 8.0 | 0.00 | 0.00 | 0.00 | 87 | 1015.7 |
| 20260502102557 | 51 | 41 | 1.0 | 4.0 | 0.00 | 0.00 | 0.00 | 87 | 1015.8 |
| 20260502102054 | 51 | 51 | 1.0 | 5.0 | 0.00 | 0.00 | 0.00 | 87 | 1015.7 |
| 20260502101611 | 51 | 38 | 2.0 | 5.0 | 0.00 | 0.00 | 0.00 | 86 | 1015.6 |
| 20260502101054 | 51 | 48 | 1.0 | 5.0 | 0.00 | 0.00 | 0.00 | 86 | 1015.6 |
| 20260502100557 | 51 | 17 | 2.0 | 8.0 | 0.00 | 0.00 | 0.00 | 86 | 1015.3 |
| 20260502091055 | 52 | 0 | 0.0 | 3.0 | 0.00 | 0.00 | 0.00 | 85 | 1016.5 |
| 20260502090554 | 52 | 35 | 0.0 | 3.0 | 0.00 | 0.00 | 0.00 | 85 | 1016.7 |
| 20260502071054 | 55 | 352 | 2.0 | 7.0 | 0.00 | 0.00 | 0.00 | 76 | 1016.4 |
| 20260502070554 | 55 | 14 | 1.0 | 7.0 | 0.00 | 0.00 | 0.00 | 76 | 1016.3 |
| 20260502070114 | 55 | 28 | 3.0 | 7.0 | 0.00 | 0.00 | 0.00 | 76 | 1016.5 |
| 20260502065556 | 55 | 5 | 2.0 | 5.0 | 0.00 | 0.00 | 0.00 | 76 | 1016.2 |
| 20260502065055 | 55 | 15 | 1.0 | 7.0 | 0.00 | 0.00 | 0.00 | 76 | 1016.4 |
| 20260502064558 | 55 | 17 | 1.0 | 8.0 | 0.00 | 0.00 | 0.00 | 75 | 1016.4 |
| 20260502064055 | 56 | 14 | 3.0 | 8.0 | 0.00 | 0.00 | 0.00 | 75 | 1016.4 |
| 20260502063554 | 56 | 5 | 2.0 | 7.0 | 0.00 | 0.00 | 0.00 | 75 | 1016.4 |
| 20260502063113 | 56 | 360 | 2.0 | 5.0 | 0.00 | 0.00 | 0.00 | 75 | 1016.4 |
| 20260502062558 | 56 | 338 | 2.0 | 5.0 | 0.00 | 0.00 | 0.00 | 76 | 1016.3 |
| 20260502062054 | 56 | 5 | 1.0 | 5.0 | 0.00 | 0.00 | 0.00 | 76 | 1016.3 |
| 20260502061554 | 56 | 360 | 2.0 | 8.0 | 0.00 | 0.00 | 0.00 | 75 | 1016.3 |
| 20260502061054 | 56 | 42 | 3.0 | 8.0 | 0.00 | 0.00 | 0.00 | 75 | 1016.3 |
| 20260502060554 | 57 | 14 | 2.0 | 6.0 | 0.00 | 0.00 | 0.00 | 75 | 1016.3 |
| 20260502060057 | 57 | 27 | 1.0 | 3.0 | 0.00 | 0.00 | 0.00 | 75 | 1016.2 |
| 20260502055554 | 57 | 20 | 0.0 | 3.0 | 0.00 | 0.00 | 0.00 | 75 | 1016.1 |
| 20260502055057 | 57 | 5 | 1.0 | 5.0 | 0.00 | 0.00 | 0.00 | 74 | 1016.1 |
| 20260502054606 | 57 | 9 | 1.0 | 6.0 | 0.00 | 0.00 | 0.00 | 74 | 1016.0 |
| 20260502054057 | 58 | 9 | 2.0 | 8.0 | 0.00 | 0.00 | 0.00 | 74 | 1016.1 |
| 20260502053554 | 58 | 0 | 3.0 | 8.0 | 0.00 | 0.00 | 0.00 | 74 | 1016.1 |
| 20260502053055 | 58 | 5 | 2.0 | 5.0 | 0.00 | 0.00 | 0.00 | 74 | 1016.0 |
| 20260502052554 | 58 | 18 | 2.0 | 5.0 | 0.00 | 0.00 | 0.00 | 74 | 1016.0 |
| 20260502052054 | 59 | 5 | 2.0 | 5.0 | 0.00 | 0.00 | 0.00 | 73 | 1016.0 |
| 20260502051556 | 59 | 19 | 1.0 | 7.0 | 0.00 | 0.00 | 0.00 | 73 | 1015.9 |